TimePST,TemperatureF,Dew PointF,Humidity,Sea Level PressureIn,VisibilityMPH,Wind Direction,Wind SpeedMPH,Gust SpeedMPH,PrecipitationIn,Events,Conditions,WindDirDegrees,DateUTC
12:53 AM,59.0,28.9,32,30.14,10.0,WNW,3.5,-,N/A,,Clear,290,2013-02-16 08:53:00
1:53 AM,57.0,28.9,34,30.13,10.0,WNW,4.6,-,N/A,,Clear,300,2013-02-16 09:53:00
2:53 AM,55.0,28.0,35,30.12,10.0,WNW,4.6,-,N/A,,Clear,290,2013-02-16 10:53:00
3:53 AM,54.0,28.0,37,30.12,10.0,WNW,4.6,-,N/A,,Clear,300,2013-02-16 11:53:00
4:53 AM,54.0,26.1,34,30.12,10.0,NW,3.5,-,N/A,,Clear,320,2013-02-16 12:53:00
5:53 AM,54.0,25.0,33,30.13,10.0,WNW,3.5,-,N/A,,Clear,300,2013-02-16 13:53:00
6:53 AM,54.0,24.1,31,30.13,10.0,WNW,4.6,-,N/A,,Clear,300,2013-02-16 14:53:00
7:53 AM,57.0,28.0,33,30.14,10.0,WNW,3.5,-,N/A,,Clear,290,2013-02-16 15:53:00
8:53 AM,64.9,30.0,27,30.15,10.0,NNW,3.5,-,N/A,,Clear,330,2013-02-16 16:53:00
9:53 AM,75.0,28.0,18,30.15,10.0,Calm,Calm,-,N/A,,Clear,0,2013-02-16 17:53:00
10:53 AM,79.0,23.0,13,30.14,10.0,Calm,Calm,-,N/A,,Clear,0,2013-02-16 18:53:00
11:53 AM,82.0,21.9,11,30.10,10.0,Variable,3.5,-,N/A,,Clear,0,2013-02-16 19:53:00
12:53 PM,81.0,21.0,11,30.06,10.0,Variable,4.6,-,N/A,,Clear,0,2013-02-16 20:53:00
1:53 PM,80.1,18.0,10,30.03,10.0,SSW,8.1,-,N/A,,Clear,210,2013-02-16 21:53:00
2:53 PM,81.0,17.1,9,30.01,10.0,WSW,9.2,-,N/A,,Clear,240,2013-02-16 22:53:00
3:53 PM,79.0,19.9,11,29.99,10.0,NW,12.7,-,N/A,,Clear,310,2013-02-16 23:53:00
4:53 PM,75.0,21.9,14,29.99,10.0,WNW,11.5,-,N/A,,Clear,290,2013-02-17 00:53:00
5:53 PM,71.1,23.0,16,29.99,10.0,West,6.9,-,N/A,,Clear,270,2013-02-17 01:53:00
6:53 PM,66.9,25.0,21,29.99,10.0,WNW,6.9,-,N/A,,Clear,290,2013-02-17 02:53:00
7:53 PM,63.0,28.9,28,29.98,10.0,WNW,3.5,-,N/A,,Clear,300,2013-02-17 03:53:00
8:53 PM,62.1,30.0,30,29.99,10.0,WNW,4.6,-,N/A,,Clear,300,2013-02-17 04:53:00
9:53 PM,59.0,30.9,35,29.99,10.0,Calm,Calm,-,N/A,,Clear,0,2013-02-17 05:53:00
10:53 PM,55.0,33.1,43,29.98,10.0,Calm,Calm,-,N/A,,Clear,0,2013-02-17 06:53:00
11:53 PM,55.0,33.1,43,29.98,10.0,Calm,Calm,-,N/A,,Clear,0,2013-02-17 07:53:00